N8AMF Weather Reports


Display with metric or nautical units.
time (UTC)temp
F
wind
direction
speed
MPH
gust
MPH
rain 1hr
in
rain 24hr
in
rain mn
in
humidity
%
barometer
mb
20260505213611 51 205 1.0 3.0 0.21 0.51 0.51 97 1007.0
20260505213107 51 201 3.0 7.0 0.14 0.49 0.49 96 1007.0
20260505212603 52 352 2.0 6.0 0.07 0.47 0.47 97 1007.1
20260505212102 53 243 2.0 6.0 0.07 0.47 0.47 96 1006.7
20260505211558 53 312 2.0 4.0 0.14 0.46 0.46 97 1006.9
20260505211055 53 13 1.0 5.0 0.14 0.45 0.45 97 1006.7
20260505210551 53 219 1.0 5.0 0.19 0.44 0.44 96 1006.8
20260505210049 53 88 1.0 4.0 0.17 0.42 0.42 96 1006.9
20260505205546 53 326 2.0 5.0 0.17 0.41 0.41 96 1006.9
20260505205044 53 296 1.0 5.0 0.17 0.40 0.40 96 1006.8
20260505204541 53 36 2.0 6.0 0.12 0.38 0.38 96 1007.1
20260505204038 53 302 1.0 4.0 0.24 0.37 0.37 96 1007.1
20260505203535 54 330 3.0 5.0 0.24 0.36 0.36 96 1007.2
20260505203032 56 223 2.0 6.0 0.19 0.33 0.33 95 1007.0
20260505202528 57 247 1.0 6.0 0.21 0.32 0.32 96 1006.8
20260505202024 57 201 1.0 5.0 0.09 0.29 0.29 96 1006.6
20260505201521 57 203 1.0 4.0 0.09 0.28 0.28 96 1006.8
20260505201018 57 195 0.0 6.0 0.09 0.28 0.28 95 1006.8
20260505200516 57 240 0.0 5.0 0.05 0.27 0.27 95 1006.9
20260505200013 57 228 2.0 4.0 0.09 0.26 0.26 95 1006.9
20260505195509 58 205 1.0 4.0 0.09 0.26 0.26 95 1006.9
20260505195007 58 251 1.0 3.0 0.14 0.25 0.25 95 1006.9
20260505194504 57 17 0.0 2.0 0.17 0.24 0.24 94 1006.9
20260505194004 58 242 0.0 2.0 0.26 0.22 0.22 94 1007.0
20260505193502 58 207 1.0 3.0 0.31 0.21 0.21 94 1007.0
20260505192959 58 76 1.0 2.0 0.31 0.18 0.18 93 1006.8
20260505192457 58 211 0.0 2.0 0.38 0.16 0.16 93 1007.0
20260505191954 58 177 0.0 3.0 0.33 0.13 0.13 93 1007.1
20260505191453 58 205 1.0 3.0 0.26 0.10 0.10 92 1007.0
20260505190950 58 163 1.0 3.0 0.19 0.07 0.07 91 1006.8
20260505190444 58 226 1.0 4.0 0.09 0.06 0.06 91 1007.0
20260505185940 59 201 2.0 2.0 0.05 0.04 0.04 90 1006.9
20260505185438 59 235 0.0 2.0 0.09 0.04 0.04 89 1007.0
20260505184934 59 224 2.0 3.0 0.12 0.04 0.04 88 1006.9
20260505184431 59 215 2.0 5.0 0.12 0.02 0.02 86 1007.0
20260505183927 59 250 1.0 7.0 0.09 0.02 0.02 84 1007.2
20260505183424 60 214 5.0 10.0 0.02 0.00 0.00 80 1007.1
20260505182921 61 214 1.0 7.0 0.00 0.00 0.00 79 1006.9
20260505182418 61 221 2.0 9.0 0.00 0.00 0.00 78 1007.0
20260505181914 62 219 6.0 10.0 0.00 0.00 0.00 77 1006.7
20260505181412 62 219 4.0 9.0 0.00 0.00 0.00 76 1006.8
20260505180908 62 223 3.0 11.0 0.00 0.00 0.00 75 1006.8
20260505180405 62 194 3.0 13.0 0.00 0.00 0.00 75 1006.9
20260505175901 62 41 3.0 10.0 0.00 0.00 0.00 74 1006.7
20260505175358 63 228 5.0 11.0 0.00 0.00 0.00 73 1006.9
20260505174854 63 358 4.0 10.0 0.00 0.00 0.00 73 1006.7
20260505174352 64 33 2.0 6.0 0.00 0.00 0.00 72 1006.9
20260505173848 64 273 3.0 5.0 0.00 0.00 0.00 72 1006.6
20260505173345 64 249 3.0 9.0 0.00 0.00 0.00 70 1006.6
20260505172842 65 213 3.0 10.0 0.00 0.00 0.00 71 1006.6
20260505172339 64 237 2.0 9.0 0.00 0.00 0.00 70 1006.6
20260505171839 64 203 2.0 10.0 0.00 0.00 0.00 71 1006.5
20260505171336 64 207 3.0 9.0 0.00 0.00 0.00 71 1006.7
20260505170833 63 212 4.0 11.0 0.00 0.00 0.00 72 1006.5
20260505170330 64 213 4.0 13.0 0.00 0.00 0.00 71 1006.5
20260505165825 64 215 0.0 9.0 0.00 0.00 0.00 71 1006.6
20260505165321 64 229 5.0 11.0 0.00 0.00 0.00 71 1006.6
20260505164817 64 353 4.0 12.0 0.00 0.00 0.00 70 1006.5
20260505164314 64 232 3.0 4.0 0.00 0.00 0.00 69 1006.6
20260505163812 65 245 5.0 13.0 0.00 0.00 0.00 68 1006.4
20260505163310 65 214 5.0 9.0 0.00 0.00 0.00 67 1006.4
20260505162808 65 224 2.0 6.0 0.00 0.00 0.00 68 1006.3
20260505162306 65 212 3.0 5.0 0.00 0.00 0.00 67 1006.4
20260505161802 65 4 4.0 8.0 0.00 0.00 0.00 67 1006.3
20260505161259 65 169 3.0 7.0 0.00 0.00 0.00 67 1006.3
20260505160756 65 20 0.0 15.0 0.00 0.00 0.00 66 1006.5
20260505160254 65 214 3.0 8.0 0.00 0.00 0.00 66 1006.4
20260505153233 69 216 6.0 11.0 0.00 0.00 0.00 61 1005.9
20260505152730 68 235 4.0 7.0 0.00 0.00 0.00 62 1005.7
20260505152226 69 187 1.0 7.0 0.00 0.00 0.00 63 1005.6
20260505151720 69 223 3.0 7.0 0.00 0.00 0.00 62 1005.5
20260505151218 68 201 1.0 9.0 0.00 0.00 0.00 62 1005.2
20260505150715 68 209 3.0 7.0 0.00 0.00 0.00 61 1005.0
20260505150212 68 207 1.0 6.0 0.00 0.00 0.00 63 1005.0
20260505140645 65 267 6.0 11.0 0.00 0.00 0.00 65 1005.1
20260505140142 65 204 3.0 15.0 0.00 0.00 0.00 65 1005.1
20260505130106 63 191 1.0 3.0 0.00 0.00 0.00 72 1004.7
20260505124555 62 216 3.0 7.0 0.00 0.00 0.00 71 1005.0
20260505124051 62 225 1.0 6.0 0.00 0.00 0.00 72 1005.1
20260505123548 62 187 1.0 7.0 0.00 0.00 0.00 71 1004.8
20260505123044 62 183 2.0 8.0 0.00 0.00 0.00 71 1004.8
20260505122541 62 230 3.0 10.0 0.00 0.00 0.00 71 1004.8
20260505122038 62 200 5.0 8.0 0.00 0.00 0.00 70 1004.8
20260505121535 62 67 3.0 9.0 0.00 0.00 0.00 70 1004.7
20260505121032 62 17 1.0 4.0 0.00 0.00 0.00 71 1004.6
20260505120528 62 303 1.0 11.0 0.00 0.00 0.00 70 1004.3
20260505120023 62 248 2.0 6.0 0.00 0.00 0.00 71 1004.2
20260505115518 62 229 0.0 8.0 0.00 0.00 0.00 71 1003.9
20260505115016 62 242 0.0 5.0 0.00 0.00 0.00 71 1004.0
20260505114513 62 78 3.0 6.0 0.00 0.00 0.00 71 1003.6
20260505114009 61 224 2.0 5.0 0.00 0.00 0.00 72 1003.4
20260505113506 62 188 1.0 3.0 0.00 0.00 0.00 71 1002.9
20260505113001 62 212 3.0 5.0 0.00 0.00 0.00 71 1003.1
20260505112459 62 284 1.0 7.0 0.00 0.00 0.00 70 1003.1
20260505111956 62 202 7.0 7.0 0.00 0.00 0.00 70 1003.0
20260505111456 62 89 0.0 9.0 0.00 0.00 0.00 70 1002.9
20260505110952 62 204 4.0 9.0 0.00 0.00 0.00 69 1003.2
20260505110449 62 154 2.0 10.0 0.00 0.00 0.00 69 1003.1
20260505101920 63 195 3.0 7.0 0.00 0.00 0.00 71 1003.0
20260505101415 63 273 1.0 6.0 0.00 0.00 0.00 72 1003.1
20260505100911 64 309 1.0 8.0 0.00 0.00 0.00 70 1003.0
20260505100408 64 84 2.0 5.0 0.00 0.00 0.00 67 1003.1
20260505095903 64 224 3.0 6.0 0.00 0.00 0.00 65 1002.9
20260505095401 65 234 1.0 10.0 0.00 0.00 0.00 64 1002.9
20260505094857 65 222 2.0 4.0 0.00 0.00 0.00 65 1002.5
20260505094354 65 230 4.0 8.0 0.00 0.00 0.00 64 1002.5
20260505093849 65 202 3.0 6.0 0.00 0.00 0.00 64 1002.3
20260505093347 65 237 2.0 7.0 0.00 0.00 0.00 64 1002.1
20260505092844 65 57 3.0 7.0 0.00 0.00 0.00 64 1002.1
20260505092342 65 205 3.0 9.0 0.00 0.00 0.00 64 1002.1
20260505091839 65 218 0.0 7.0 0.00 0.00 0.00 64 1002.2
20260505091337 65 202 2.0 9.0 0.00 0.00 0.00 63 1002.2
20260505090835 66 229 3.0 7.0 0.00 0.00 0.00 63 1002.0
20260505090333 66 196 1.0 5.0 0.00 0.00 0.00 63 1002.1
20260505085830 66 214 4.0 10.0 0.00 0.00 0.00 62 1001.7
20260505085328 66 233 4.0 8.0 0.00 0.00 0.00 62 1001.9
20260505084825 66 133 1.0 5.0 0.00 0.00 0.00 62 1001.8
20260505084324 66 196 3.0 6.0 0.00 0.00 0.00 61 1001.8
20260505083820 66 151 1.0 9.0 0.00 0.00 0.00 61 1001.7
20260505083318 66 216 2.0 6.0 0.00 0.00 0.00 61 1001.8
20260505082814 66 261 0.0 7.0 0.00 0.00 0.00 60 1001.7
20260505082311 66 226 4.0 8.0 0.00 0.00 0.00 61 1001.5
20260505081807 67 273 2.0 14.0 0.00 0.00 0.00 60 1001.6
20260505081304 67 24 3.0 8.0 0.00 0.00 0.00 60 1001.6
20260505080801 67 202 3.0 6.0 0.00 0.00 0.00 59 1001.3
20260505080256 67 233 2.0 5.0 0.00 0.00 0.00 60 1001.6
20260505075752 67 232 5.0 8.0 0.00 0.00 0.00 59 1001.5
20260505075250 67 240 2.0 7.0 0.00 0.00 0.00 58 1001.6
20260505074747 68 208 3.0 5.0 0.00 0.00 0.00 58 1001.5
20260505074244 67 223 2.0 5.0 0.00 0.00 0.00 58 1001.5
20260505073741 68 74 0.0 3.0 0.00 0.00 0.00 58 1001.5
20260505073239 68 168 3.0 9.0 0.00 0.00 0.00 56 1001.2
20260505072735 68 214 2.0 5.0 0.00 0.00 0.00 57 1001.5
20260505072232 69 223 2.0 5.0 0.00 0.00 0.00 56 1001.4
20260505071727 68 213 4.0 8.0 0.00 0.00 0.00 56 1001.4
20260505071224 68 199 3.0 12.0 0.00 0.00 0.00 57 1001.6
20260505070722 68 330 0.0 6.0 0.00 0.00 0.00 57 1001.4
20260505070218 68 206 3.0 7.0 0.00 0.00 0.00 57 1001.5
20260505065714 68 220 2.0 6.0 0.00 0.00 0.00 57 1001.4
20260505065211 68 215 3.0 6.0 0.00 0.00 0.00 58 1001.5
20260505064708 68 358 3.0 10.0 0.00 0.00 0.00 58 1001.5
20260505064206 68 149 0.0 6.0 0.00 0.00 0.00 58 1001.4
20260505063703 68 256 1.0 6.0 0.00 0.00 0.00 58 1001.6
20260505063159 68 210 3.0 5.0 0.00 0.00 0.00 59 1001.5
20260505062655 68 251 2.0 9.0 0.00 0.00 0.00 59 1001.3
20260505062153 68 250 2.0 8.0 0.00 0.00 0.00 59 1001.5
20260505061650 68 63 2.0 7.0 0.00 0.00 0.00 59 1001.6
20260505061148 68 151 4.0 10.0 0.00 0.00 0.00 59 1001.4
20260505060645 68 232 2.0 5.0 0.00 0.00 0.00 61 1001.4
20260505060142 68 218 4.0 7.0 0.00 0.00 0.00 60 1001.4
20260505055637 68 195 5.0 5.0 0.00 0.00 0.00 61 1001.6
20260505055134 68 210 3.0 8.0 0.00 0.00 0.00 60 1001.6
20260505054632 68 160 0.0 7.0 0.00 0.00 0.00 60 1001.6
20260505054130 68 212 4.0 9.0 0.00 0.00 0.00 60 1001.6
20260505053627 67 181 2.0 5.0 0.00 0.00 0.00 62 1001.7
20260505053123 67 198 5.0 8.0 0.00 0.00 0.00 63 1001.8
20260505052620 67 56 0.0 4.0 0.00 0.00 0.00 63 1002.0
20260505052118 67 241 3.0 6.0 0.00 0.00 0.00 63 1001.8
20260505051614 67 213 1.0 6.0 0.00 0.00 0.00 63 1002.0
20260505051112 67 233 4.0 7.0 0.00 0.00 0.00 64 1001.9
20260505050610 67 187 3.0 8.0 0.00 0.00 0.00 64 1001.8
20260505050108 67 206 0.0 4.0 0.00 0.00 0.00 64 1002.2
20260505041538 66 201 2.0 7.0 0.00 0.00 0.00 67 1002.2
20260505041035 66 245 2.0 6.0 0.00 0.00 0.00 67 1002.3
20260505040532 66 189 1.0 4.0 0.00 0.00 0.00 66 1002.4
20260505040030 66 148 0.0 5.0 0.00 0.00 0.00 67 1002.2
20260505035525 66 171 2.0 7.0 0.00 0.00 0.00 66 1002.4
20260505035022 65 218 2.0 6.0 0.00 0.00 0.00 66 1002.3
20260505034519 65 198 3.0 5.0 0.00 0.00 0.00 67 1002.5
20260505034016 65 210 3.0 5.0 0.00 0.00 0.00 67 1002.4
20260505033513 65 223 9.0 11.0 0.00 0.00 0.00 65 1002.5
20260505033011 65 158 2.0 5.0 0.00 0.00 0.00 65 1002.4
20260505032508 65 122 1.0 5.0 0.00 0.00 0.00 65 1002.7
20260505032004 66 224 3.0 5.0 0.00 0.00 0.00 64 1002.8
20260505031501 66 220 2.0 10.0 0.00 0.00 0.00 63 1002.8
20260505030958 66 207 4.0 5.0 0.00 0.00 0.00 63 1002.7
20260505030455 66 157 3.0 10.0 0.00 0.00 0.00 62 1002.7
20260505025949 66 200 3.0 10.0 0.00 0.00 0.00 62 1002.8
20260505025447 66 210 2.0 5.0 0.00 0.00 0.00 64 1002.8
20260505024946 66 187 2.0 7.0 0.00 0.00 0.00 62 1002.8
20260505024443 66 149 0.0 5.0 0.00 0.00 0.00 62 1002.9
20260505023940 66 195 1.0 4.0 0.00 0.00 0.00 63 1002.8
20260505023437 66 116 1.0 5.0 0.00 0.00 0.00 62 1002.7
20260505022934 66 206 0.0 6.0 0.00 0.00 0.00 61 1002.8
20260505022432 66 147 0.0 3.0 0.00 0.00 0.00 61 1002.9
20260505021929 67 202 2.0 4.0 0.00 0.00 0.00 60 1002.7
20260505021425 67 208 0.0 5.0 0.00 0.00 0.00 59 1002.9
20260505020921 67 230 0.0 7.0 0.00 0.00 0.00 59 1002.7
20260505020416 67 187 0.0 4.0 0.00 0.00 0.00 58 1002.6
20260505015913 68 282 0.0 5.0 0.00 0.00 0.00 58 1002.5
20260505015411 68 235 1.0 3.0 0.00 0.00 0.00 57 1002.6
20260505014908 68 199 3.0 4.0 0.00 0.00 0.00 57 1002.7
20260505014405 68 194 5.0 7.0 0.00 0.00 0.00 56 1002.7
20260505013901 68 218 3.0 8.0 0.00 0.00 0.00 56 1002.5
20260505013358 68 152 0.0 7.0 0.00 0.00 0.00 56 1002.7
20260505012857 69 287 3.0 8.0 0.00 0.00 0.00 55 1002.5
20260505012354 69 219 2.0 6.0 0.00 0.00 0.00 55 1002.6
20260505011850 69 32 3.0 6.0 0.00 0.00 0.00 54 1002.4
20260505011347 69 207 1.0 9.0 0.00 0.00 0.00 54 1002.4
20260505010843 69 240 0.0 10.0 0.00 0.00 0.00 55 1002.5
20260505010339 69 214 3.0 5.0 0.00 0.00 0.00 54 1002.4
20260505005836 69 194 2.0 8.0 0.00 0.00 0.00 52 1002.4
20260505005332 69 305 2.0 11.0 0.00 0.00 0.00 52 1002.1
20260505004830 69 219 0.0 3.0 0.00 0.00 0.00 53 1002.1
20260505004326 69 205 3.0 4.0 0.00 0.00 0.00 52 1002.2
20260505003824 70 321 0.0 5.0 0.00 0.00 0.00 51 1002.0
20260505003321 69 147 2.0 5.0 0.00 0.00 0.00 52 1001.8
20260505002816 70 314 1.0 3.0 0.00 0.00 0.00 52 1002.0
20260505002314 70 210 1.0 8.0 0.00 0.00 0.00 50 1001.9
20260505001812 71 232 3.0 5.0 0.00 0.00 0.00 50 1002.0
20260505001309 71 217 1.0 8.0 0.00 0.00 0.00 49 1001.8
20260505000806 71 189 6.0 7.0 0.00 0.00 0.00 49 1001.5
20260505000304 71 220 4.0 6.0 0.00 0.00 0.00 50 1001.5
20260504235800 71 220 1.0 6.0 0.00 0.00 0.00 49 1001.3
20260504235256 71 231 2.0 8.0 0.00 0.00 0.00 51 1001.5
20260504234754 71 229 5.0 11.0 0.00 0.00 0.00 50 1001.5
20260504234251 71 96 1.0 4.0 0.00 0.00 0.00 53 1001.5
20260504233747 71 207 3.0 5.0 0.00 0.00 0.00 53 1001.1
20260504233243 72 358 1.0 8.0 0.00 0.00 0.00 53 1001.2
20260504232740 72 221 2.0 9.0 0.00 0.00 0.00 53 1001.2
20260504232237 72 274 2.0 9.0 0.00 0.00 0.00 53 1001.0
20260504231734 72 215 10.0 12.0 0.00 0.00 0.00 52 1001.0
20260504231231 72 301 0.0 7.0 0.00 0.00 0.00 52 1001.1
20260504230726 72 207 7.0 15.0 0.00 0.00 0.00 51 1001.0
20260504230225 72 180 2.0 8.0 0.00 0.00 0.00 52 1001.2
20260504225724 73 209 4.0 10.0 0.00 0.00 0.00 52 1001.2
20260504225220 73 264 2.0 8.0 0.00 0.00 0.00 53 1001.2
20260504224717 72 230 4.0 9.0 0.00 0.00 0.00 53 1001.4
20260504224214 73 211 2.0 8.0 0.00 0.00 0.00 54 1001.3
20260504223710 72 120 4.0 6.0 0.00 0.00 0.00 55 1001.4
20260504223206 72 207 4.0 5.0 0.00 0.00 0.00 55 1001.2
20260504222703 72 224 1.0 10.0 0.00 0.00 0.00 56 1001.4
20260504222200 72 158 1.0 6.0 0.00 0.00 0.00 57 1001.5
20260504221657 72 189 4.0 9.0 0.00 0.00 0.00 56 1001.6
20260504221155 72 145 6.0 13.0 0.00 0.00 0.00 57 1001.7
20260504220650 72 213 3.0 10.0 0.00 0.00 0.00 55 1001.6
20260504220149 72 214 7.0 18.0 0.00 0.00 0.00 55 1001.7
20260504215644 72 215 5.0 9.0 0.00 0.00 0.00 55 1001.9
20260504215142 72 222 2.0 8.0 0.00 0.00 0.00 54 1001.9
20260504214637 72 186 3.0 14.0 0.00 0.00 0.00 55 1001.8
20260504214134 72 350 1.0 11.0 0.00 0.00 0.00 53 1002.1